This demonstration page uses our WeatherBlox Daily Observations layout. Learn more.

Hourly Observations for November 14, 2018

Temp ( °F °C ) Dew Point ( °F °C ) Humidity (%) Winds ( mph kmh ) Pressure ( in mb ) Visibility ( mi km ) Precip ( " mm )
12:15 am 00:15 Clear 31 -0.4 20 -6.9 62 62 SW 7 11 30.48 1032 10 16.09344 0 0
12:35 am 00:35 Clear 31 -0.6 20 -6.8 63 63 SW 6 9 30.48 1032 10 16.09344 0 0
12:55 am 00:55 Clear 31 -0.3 19 -7 61 61 SW 5 7 30.45 1031 10 16.09344 0 0
1:15 am 01:15 Clear 32 -0.2 20 -6.9 61 61 SSW 6 9 30.45 1031 10 16.09344 0 0
1:35 am 01:35 Clear 31 -0.6 20 -6.9 63 63 SW 6 9 30.48 1032 10 16.09344 0 0
1:55 am 01:55 Clear 30 -1 19 -7 64 64 SW 5 7 30.48 1032 10 16.09344 0 0
2:15 am 02:15 Clear 29 -1.4 20 -6.7 68 68 SW 3 6 30.48 1032 10 16.09344 0 0
2:35 am 02:35 Clear 30 -1.2 20 -6.8 66 66 SW 5 7 30.48 1032 10 16.09344 0 0
2:55 am 02:55 Clear 29 -1.5 20 -6.8 68 68 S 5 7 30.48 1032 10 16.09344 0 0
3:15 am 03:15 Clear 29 -1.6 20 -6.8 68 68 SSW 6 9 30.48 1032 10 16.09344 0 0
3:35 am 03:35 Clear 29 -1.7 20 -6.9 68 68 SSW 5 7 30.48 1032 10 16.09344 0 0
3:55 am 03:55 Clear 28 -2 20 -6.8 70 70 SW 3 6 30.45 1031 10 16.09344 0 0
4:15 am 04:15 Clear 27 -2.8 20 -6.7 75 75 Calm 30.45 1031 10 16.09344 0 0
4:35 am 04:35 Clear 27 -3 20 -6.6 76 76 Calm 30.45 1031 10 16.09344 0 0
4:55 am 04:55 Clear 27 -2.7 20 -6.5 75 75 SSW 3 6 30.45 1031 10 16.09344 0 0
5:15 am 05:15 Clear 27 -3 20 -6.7 76 76 SW 5 7 30.45 1031 10 16.09344 0 0
5:35 am 05:35 Clear 27 -3 20 -6.9 75 75 SW 5 7 30.48 1032 10 16.09344 0 0
5:55 am 05:55 Clear 26 -3.3 20 -6.8 77 77 SSW 3 6 30.45 1031 10 16.09344 0 0
6:15 am 06:15 Clear 25 -3.7 20 -6.8 79 79 SSW 6 9 30.48 1032 10 16.09344 0 0
6:35 am 06:35 Clear 25 -4.1 20 -6.7 82 82 Calm 30.48 1032 10 16.09344 0 0
6:55 am 06:55 Clear 25 -4.1 20 -6.5 84 84 Calm 30.48 1032 10 16.09344 0 0
7:15 am 07:15 Clear 25 -4.1 20 -6.5 84 84 SSW 3 6 30.48 1032 10 16.09344 0 0
7:35 am 07:35 Sunny 25 -4 21 -6.3 84 84 S 3 6 30.48 1032 10 16.09344 0 0
7:55 am 07:55 Sunny 24 -4.3 21 -6.3 86 86 Calm 30.48 1032 10 16.09344 0 0
8:15 am 08:15 Sunny 26 -3.6 22 -5.7 86 86 Calm 30.45 1031 10 16.09344 0 0
8:35 am 08:35 Sunny 29 -1.7 24 -4.3 83 83 Calm 30.45 1031 10 16.09344 0 0
8:55 am 08:55 Sunny 32 -0.1 25 -4 75 75 Calm 30.42 1030 10 16.09344 0 0
9:15 am 09:15 Sunny 34 0.9 26 -3.6 72 72 Calm 30.42 1030 10 16.09344 0 0
9:35 am 09:35 Sunny 36 2.3 27 -2.9 69 69 SW 3 6 30.42 1030 10 16.09344 0 0
9:55 am 09:55 Sunny 37 3 28 -2.1 69 69 Calm 30.39 1029 10 16.09344 0 0
10:15 am 10:15 Sunny 39 3.8 29 -1.7 68 68 SSW 7 11 30.39 1029 10 16.09344 0 0
10:35 am 10:35 Sunny 40 4.7 30 -1.3 65 65 SSW 7 11 30.39 1029 10 16.09344 0 0
10:55 am 10:55 Sunny 42 5.8 30 -1.2 61 61 SSW 6 9 30.36 1028 10 16.09344 0 0
11:15 am 11:15 Sunny 45 7.1 32 0 61 61 SSW 5 7 30.36 1028 10 16.09344 0 0
11:35 am 11:35 Sunny 47 8.1 31 -0.3 56 56 SSW 8 13 30.33 1027 10 16.09344 0 0
11:55 am 11:55 Sunny 47 8.6 31 -0.6 53 53 SSW 9 15 30.3 1026 10 16.09344 0 0
12:15 pm 12:15 Sunny 48 9 31 -0.5 52 52 SSW 8 13 30.3 1026 10 16.09344 0 0
12:35 pm 12:35 Sunny 49 9.3 31 -0.8 50 50 SW 10 17 30.27 1025 10 16.09344 0 0
12:55 pm 12:55 Sunny 50 9.9 31 -0.4 49 49 SSW 9 15 30.27 1025 10 16.09344 0 0
1:15 pm 13:15 Sunny 51 10.6 32 -0.2 47 47 S 10 17 30.24 1024 10 16.09344 0 0
1:35 pm 13:35 Sunny 52 11.2 31 -0.4 45 45 SSW 10 17 30.24 1024 10 16.09344 0 0
1:55 pm 13:55 Sunny 53 11.8 31 -0.7 42 42 SSW 9 15 30.21 1023 10 16.09344 0 0
2:15 pm 14:15 Sunny 54 12.2 31 -0.4 42 42 SSW 9 15 30.18 1022 10 16.09344 0 0
2:35 pm 14:35 Sunny 54 12.4 31 -0.6 41 41 SSW 9 15 30.18 1022 10 16.09344 0 0
2:55 pm 14:55 Sunny 55 12.7 31 -0.4 41 41 SSW 9 15 30.18 1022 10 16.09344 0 0
3:15 pm 15:15 Sunny 55 12.8 31 -0.6 40 40 SSW 8 13 30.15 1021 10 16.09344 0 0
3:35 pm 15:35 Sunny 55 12.6 32 -0.1 42 42 S 8 13 30.15 1021 10 16.09344 0 0
3:55 pm 15:55 Sunny 53 11.8 32 0.1 45 45 S 9 15 30.15 1021 10 16.09344 0 0
4:15 pm 16:15 Sunny 51 10.7 32 0.2 49 49 SSE 9 15 30.15 1021 10 16.09344 0 0
4:35 pm 16:35 Sunny 50 10 33 0.3 51 51 SSE 9 15 30.15 1021 10 16.09344 0 0
4:55 pm 16:55 Sunny 48 8.7 32 0 55 55 SSE 8 13 30.15 1021 10 16.09344 0 0
5:15 pm 17:15 Sunny 45 7.4 32 0 60 60 SSE 9 15 30.15 1021 10 16.09344 0 0
5:35 pm 17:35 Clear 44 6.4 31 -0.3 63 63 SSE 8 13 30.18 1022 10 16.09344 0 0
5:55 pm 17:55 Clear 42 5.7 31 -0.5 65 65 S 8 13 30.18 1022 10 16.09344 0 0
6:15 pm 18:15 Clear 40 4.6 31 -0.8 68 68 S 10 17 30.18 1022 10 16.09344 0 0
6:35 pm 18:35 Clear 40 4.7 31 -0.8 68 68 SSE 10 17 30.18 1022 10 16.09344 0 0
6:55 pm 18:55 Clear 40 4.2 31 -0.7 71 71 SSE 9 15 30.18 1022 10 16.09344 0 0
7:15 pm 19:15 Clear 38 3.5 31 -0.6 75 75 SSE 9 15 30.21 1023 10 16.09344 0 0
7:35 pm 19:35 Clear 38 3.1 31 -0.7 76 76 S 10 17 30.21 1023 10 16.09344 0 0
7:55 pm 19:55 Clear 37 2.5 31 -0.7 80 80 S 9 15 30.21 1023 10 16.09344 0 0
8:15 pm 20:15 Clear 36 2.1 31 -0.6 83 83 S 9 15 30.21 1023 10 16.09344 0 0
8:35 pm 20:35 Clear 35 1.7 31 -0.6 85 85 S 9 15 30.21 1023 10 16.09344 0 0
8:55 pm 20:55 Clear 35 1.5 31 -0.6 86 86 S 8 13 30.21 1023 10 16.09344 0 0
9:15 pm 21:15 Clear 34 1.3 31 -0.5 88 88 S 8 13 30.21 1023 10 16.09344 0 0
9:35 pm 21:35 Clear 34 1.1 31 -0.5 89 89 S 8 13 30.18 1022 10 16.09344 0 0
9:55 pm 21:55 Clear 34 1.2 31 -0.4 89 89 S 9 15 30.18 1022 10 16.09344 0 0
10:15 pm 22:15 Clear 34 1.1 31 -0.5 89 89 S 9 15 30.18 1022 10 16.09344 0 0
10:35 pm 22:35 Clear 32 0.2 30 -1 92 92 S 9 15 30.21 1023 10 16.09344 0 0
10:55 pm 22:55 Clear 32 0 30 -1 93 93 S 8 13 30.21 1023 10 16.09344 0 0
11:15 pm 23:15 Clear 32 0.1 31 -0.7 94 94 S 10 17 30.18 1022 10 16.09344 0 0
11:35 pm 23:35 Clear 33 0.3 31 -0.6 94 94 S 9 15 30.15 1021 10 16.09344 0 0
11:55 pm 23:55 Clear 32 0.2 31 -0.6 94 94 S 10 17 30.15 1021 10 16.09344 0 0

Powered by AerisWeather